Location: Barrio de Canyet
(41.4665°N, 2.2381°E)
Time: 02:17:31
(UTC+00:00)

Meteor 2-10 - Pass Details

Date: 09 April 2020
Orbit: 737 x 869 km, 81.2° (Epoch: 05 June)

Event Time Altitude Azimuth Distance (km) Brightness Sun altitude
Rises 18:58:54 0° 189° (S) 3,311 7.2 -6.9°
Reaches altitude 10° 19:01:14 10° 190° (S) 2,404 6.5 -7.3°
Maximum altitude 19:06:42 87° 277° (W) 846 4.3 -8.3°
Drops below altitude 10° 19:12:24 10° 9° (N) 2,497 6.8 -9.3°
Sets 19:14:52 0° 10° (N) 3,449 7.5 -9.8°
